{"data":{"norad_id":7530,"epoch":"2026-05-24T23:51:28.351296Z","epoch_age_seconds":89291,"freshness":"FRESH","line1":"1 07530U 74089B   26144.99407814 -.00000035  00000+0  73511-4 0  9991","line2":"2 07530 101.9908 157.9986 0012313 173.6357 213.7594 12.53697625357611","mean_motion":12.53697625,"eccentricity":0.0012313,"inclination_deg":101.9908,"raan_deg":157.9986,"arg_perigee_deg":173.6357,"mean_anomaly_deg":213.7594,"bstar":7.3511e-5,"rev_number":35761,"period_min":114.86023194787,"perigee_km":1439.4291165569,"apogee_km":1458.7043885179,"semimajor_km":7827.2037525374,"source":"CELESTRAK","updated_at":"2026-05-25T13:38:23.250630Z"}}